Aeroporto :
LOGIN :

Iscrizione | Disclaimer

   EN    FR    IT 

 










Sommario :    VFR   VFR Marginale   IFR   IFR Intensivo   IFR Molto Intensivo
Visibilità : 
Base nubi : 
>= 8 km
>= 3000ft
5 / 8 km
1000 / 3000 ft
1500m / 5 km
500 / 1000 ft
800 / 1500m
200 / 500 ft
< 800m
< 200 ft
Simboli :   Temporali  Nebbia  Neve Forte  Precipitazioni Forti  Vento > 20 kt
SIGMETs :   Varie  Temporali  Ghiacco  Turbolenza  Onda orograficha  Ceneri Vulcaniche






- Altitudine del aeroporto : 404 ft
- Codice IATA : WRO


EPWR - Wroclaw

ULTIMO METAR :
  • 140630Z 13004KT 100V170 CAVOK 17/11 Q1019

METARs OBSOLETI :
  • 140600Z 12004KT CAVOK 16/11 Q1019
  • 140530Z 12004KT CAVOK 14/10 Q1019
  • 140500Z 13004KT CAVOK 13/10 Q1020
  • 140430Z 12005KT CAVOK 12/10 Q1019
  • 140400Z 13005KT CAVOK 10/09 Q1019

TAF TAF EPWR
Valido dal 14 a 06 ore il 15 a 06 ore UTC


140530Z 1406/1506 14007KT CAVOK
PROB30
TEMPO 1409/1417 SCT045TCU



MetMap, La meteo Aeronautica in un colpo d'occhio ! - Copyright ORBIFLY Dicembre 2007 - Disclaimer

ORBIFLY MET'MAP TEAM :

Programmazione e sviluppo : Alexandra Zaïnal
Concezione : Baudouin d'Aumeries
Aiuto per la programmazione : Marc-Olivier Méhu
Supporto tecnico e logistico : Manuel Goepfert
Aiuto per la traduzione : Arnaldo La Scala

Contatto : metmap@orbifly.com




FONTI E CREDITI :

   NOAA